GW3733 Weather Reports


Display with metric or nautical units.
time (UTC)temp
F
wind
direction
speed
MPH
gust
MPH
rain 1hr
in
rain 24hr
in
rain mn
in
humidity
%
barometer
mb
20260508065404 40 358 0.0 0.0 0.00 0.00 0.00 84 1009.5
20260508064902 40 1 0.0 0.0 0.00 0.00 0.00 81 1009.4
20260508064359 40 4 0.0 0.0 0.00 0.00 0.00 82 1009.4
20260508063857 40 15 0.0 0.0 0.00 0.00 0.00 83 1009.4
20260508063355 41 350 0.0 0.0 0.00 0.00 0.00 82 1009.5
20260508062851 40 19 0.0 0.0 0.00 0.00 0.00 83 1009.4
20260508062349 41 22 0.0 1.0 0.00 0.00 0.00 81 1009.2
20260508061846 41 1 0.0 0.0 0.00 0.00 0.00 81 1009.4
20260508061343 42 10 0.0 0.0 0.00 0.00 0.00 78 1009.3
20260508060840 41 3 0.0 1.0 0.00 0.00 0.00 82 1009.3
20260508060338 42 7 0.0 0.0 0.00 0.00 0.00 79 1009.1
20260508055832 43 358 0.0 0.0 0.00 0.00 0.00 78 1009.3
20260508055330 43 336 1.0 1.0 0.00 0.00 0.00 75 1009.5
20260508054826 44 199 2.0 2.0 0.00 0.00 0.00 70 1009.3
20260508054324 45 3 0.0 0.0 0.00 0.00 0.00 71 1009.3
20260508053821 44 340 1.0 2.0 0.00 0.00 0.00 65 1009.3
20260508053319 43 15 0.0 1.0 0.00 0.00 0.00 75 1009.6
20260508052815 44 358 0.0 0.0 0.00 0.00 0.00 76 1009.6
20260508052313 45 22 0.0 0.0 0.00 0.00 0.00 74 1009.2
20260508051809 46 343 1.0 1.0 0.00 0.00 0.00 67 1009.4
20260508051304 47 357 0.0 0.0 0.00 0.00 0.00 69 1009.3
20260508050801 48 352 2.0 2.0 0.00 0.00 0.00 66 1009.4
20260508050258 48 341 1.0 3.0 0.00 0.00 0.00 66 1009.4
20260508045754 47 6 0.0 1.0 0.00 0.00 0.00 61 1009.3
20260508045252 47 31 0.0 1.0 0.00 0.00 0.00 67 1009.1
20260508044749 46 336 0.0 0.0 0.00 0.00 0.00 63 1009.3
20260508044245 48 17 1.0 1.0 0.00 0.00 0.00 66 1009.1
20260508043741 50 338 0.0 1.0 0.00 0.00 0.00 59 1009.3
20260508043239 50 36 1.0 1.0 0.00 0.00 0.00 56 1008.9
20260508042735 51 12 0.0 0.0 0.00 0.00 0.00 51 1009.0
20260508042233 51 0 2.0 2.0 0.00 0.00 0.00 55 1008.9
20260508041729 50 153 2.0 2.0 0.00 0.00 0.00 52 1008.6
20260508041226 51 6 0.0 0.0 0.00 0.00 0.00 56 1008.4
20260508040723 52 51 1.0 1.0 0.00 0.00 0.00 50 1008.4
20260508040220 53 305 1.0 1.0 0.00 0.00 0.00 51 1008.5
20260508035717 51 103 1.0 1.0 0.00 0.00 0.00 56 1008.5
20260508035215 51 0 0.0 0.0 0.00 0.00 0.00 59 1008.2
20260508034711 51 336 0.0 1.0 0.00 0.00 0.00 49 1008.3
20260508034209 50 43 1.0 1.0 0.00 0.00 0.00 57 1008.2
20260508033705 51 11 0.0 1.0 0.00 0.00 0.00 58 1007.9
20260508033204 52 8 0.0 0.0 0.00 0.00 0.00 55 1008.1
20260508032701 48 69 1.0 1.0 0.00 0.00 0.00 63 1008.1
20260508032158 49 211 2.0 2.0 0.00 0.00 0.00 70 1007.9
20260508031655 48 186 2.0 2.0 0.00 0.00 0.00 64 1007.8
20260508031151 47 14 2.0 3.0 0.00 0.00 0.00 67 1008.0
20260508030647 46 27 1.0 1.0 0.00 0.00 0.00 62 1007.8
20260508030145 45 31 1.0 1.0 0.00 0.00 0.00 73 1007.8
20260508025641 45 42 1.0 1.0 0.00 0.00 0.00 76 1007.8
20260508025138 45 15 0.0 0.0 0.00 0.00 0.00 78 1007.9
20260508024634 46 354 2.0 3.0 0.00 0.00 0.00 77 1007.6
20260508024132 45 8 0.0 0.0 0.00 0.00 0.00 76 1007.8
20260508023627 45 31 0.0 1.0 0.00 0.00 0.00 75 1007.8
20260508023126 46 4 0.0 0.0 0.00 0.00 0.00 77 1007.6
20260508022621 46 12 0.0 0.0 0.00 0.00 0.00 74 1007.9
20260508022119 47 17 1.0 1.0 0.00 0.00 0.00 73 1007.5
20260508021614 47 1 1.0 2.0 0.00 0.00 0.00 75 1007.5
20260508021110 47 6 0.0 0.0 0.00 0.00 0.00 73 1007.5
20260508020608 47 353 1.0 1.0 0.00 0.00 0.00 74 1007.5
20260508020105 48 8 0.0 0.0 0.00 0.00 0.00 72 1007.4
20260508015603 49 338 0.0 0.0 0.00 0.00 0.00 69 1007.3
20260508015059 50 3 0.0 0.0 0.00 0.00 0.00 70 1007.1
20260508014556 50 26 0.0 0.0 0.00 0.00 0.00 65 1007.1
20260508014052 50 334 0.0 0.0 0.00 0.00 0.00 63 1007.1
20260508013548 53 14 0.0 0.0 0.00 0.00 0.00 54 1007.1
20260508013045 53 34 0.0 0.0 0.00 0.00 0.00 64 1007.1
20260508012543 51 312 2.0 2.0 0.00 0.00 0.00 59 1007.0
20260508012040 51 10 0.0 0.0 0.00 0.00 0.00 63 1007.0
20260508011538 53 4 0.0 0.0 0.00 0.00 0.00 60 1006.7
20260508011035 54 354 0.0 0.0 0.00 0.00 0.00 57 1006.8
20260508010532 56 20 0.0 0.0 0.00 0.00 0.00 50 1006.5
20260508010030 57 341 0.0 0.0 0.00 0.00 0.00 47 1006.6
20260508005526 56 2 1.0 1.0 0.00 0.00 0.00 47 1006.5
20260508005023 57 208 1.0 2.0 0.00 0.00 0.00 47 1006.5
20260508004519 57 93 3.0 3.0 0.00 0.00 0.00 48 1006.3
20260508004016 57 358 0.0 0.0 0.00 0.00 0.00 49 1006.3
20260508003512 58 353 1.0 1.0 0.00 0.00 0.00 45 1006.4
20260508003010 58 354 0.0 0.0 0.00 0.00 0.00 44 1006.5
20260508002505 58 112 1.0 2.0 0.00 0.00 0.00 44 1006.2
20260508002003 58 216 2.0 2.0 0.00 0.00 0.00 46 1006.2
20260508001458 58 346 1.0 1.0 0.00 0.00 0.00 44 1006.2
20260508000954 58 306 1.0 1.0 0.00 0.00 0.00 46 1006.0
20260508000445 58 349 0.0 1.0 0.00 0.00 0.00 46 1006.0
20260507235942 58 30 0.0 1.0 0.00 0.00 0.00 43 1005.7
20260507235439 59 343 0.0 1.0 0.00 0.00 0.00 43 1005.7
20260507234937 59 13 3.0 3.0 0.00 0.00 0.00 43 1005.6
20260507234433 59 318 0.0 1.0 0.00 0.00 0.00 42 1005.7
20260507233929 60 349 1.0 2.0 0.00 0.00 0.00 45 1005.6
20260507233427 60 37 1.0 1.0 0.00 0.00 0.00 40 1005.6
20260507232925 60 275 1.0 3.0 0.00 0.00 0.00 38 1005.6
20260507232421 61 339 0.0 1.0 0.00 0.00 0.00 41 1005.4
20260507231918 61 43 0.0 1.0 0.00 0.00 0.00 39 1005.6
20260507231415 62 347 0.0 0.0 0.00 0.00 0.00 41 1005.6
20260507230911 62 218 4.0 4.0 0.00 0.00 0.00 40 1005.3
20260507230409 62 298 1.0 1.0 0.00 0.00 0.00 41 1005.3
20260507225908 62 206 1.0 1.0 0.00 0.00 0.00 40 1005.1
20260507225405 62 313 3.0 6.0 0.00 0.00 0.00 39 1005.4
20260507224901 62 321 2.0 2.0 0.00 0.00 0.00 40 1005.2
20260507224357 63 323 0.0 0.0 0.00 0.00 0.00 37 1005.3
20260507223853 63 2 1.0 1.0 0.00 0.00 0.00 43 1004.8
20260507223350 64 316 4.0 4.0 0.00 0.00 0.00 38 1004.7
20260507222847 63 324 2.0 3.0 0.00 0.00 0.00 37 1004.7
20260507222343 64 337 2.0 3.0 0.00 0.00 0.00 37 1004.9
20260507221840 64 317 2.0 2.0 0.00 0.00 0.00 42 1004.7
20260507221337 64 226 4.0 6.0 0.00 0.00 0.00 38 1004.5
20260507220832 64 92 2.0 3.0 0.00 0.00 0.00 40 1004.5
20260507220331 63 352 1.0 3.0 0.00 0.00 0.00 39 1004.5
20260507215827 63 318 2.0 3.0 0.00 0.00 0.00 41 1004.5
20260507215324 64 292 4.0 4.0 0.00 0.00 0.00 37 1004.3
20260507214821 63 339 2.0 3.0 0.00 0.00 0.00 46 1004.4
20260507214319 64 2 2.0 2.0 0.00 0.00 0.00 38 1004.4
20260507213813 66 343 4.0 6.0 0.00 0.00 0.00 38 1004.1
20260507213311 66 316 2.0 2.0 0.00 0.00 0.00 36 1004.2
20260507212808 66 345 2.0 2.0 0.00 0.00 0.00 37 1004.0
20260507212306 64 25 1.0 1.0 0.00 0.00 0.00 42 1004.1
20260507211800 65 35 6.0 8.0 0.00 0.00 0.00 36 1003.9
20260507211257 65 340 4.0 4.0 0.00 0.00 0.00 38 1003.9
20260507210754 66 328 2.0 2.0 0.00 0.00 0.00 37 1003.7
20260507210251 65 29 1.0 1.0 0.00 0.00 0.00 38 1003.7
20260507205747 64 295 3.0 3.0 0.00 0.00 0.00 36 1004.1
20260507205244 63 352 2.0 2.0 0.00 0.00 0.00 40 1004.2
20260507204740 64 314 4.0 6.0 0.00 0.00 0.00 40 1004.1
20260507204238 66 345 2.0 3.0 0.00 0.00 0.00 37 1003.9
20260507203736 66 345 3.0 6.0 0.00 0.00 0.00 34 1003.8
20260507203233 65 299 1.0 2.0 0.00 0.00 0.00 37 1004.2
20260507202729 68 307 2.0 2.0 0.00 0.00 0.00 34 1003.9
20260507202225 67 324 4.0 4.0 0.00 0.00 0.00 35 1004.0
20260507201720 67 0 1.0 1.0 0.00 0.00 0.00 37 1004.1
20260507201218 66 146 2.0 3.0 0.00 0.00 0.00 34 1004.2
20260507200714 65 304 2.0 2.0 0.00 0.00 0.00 35 1004.2
20260507200210 67 332 0.0 1.0 0.00 0.00 0.00 34 1004.1
20260507195706 67 336 1.0 1.0 0.00 0.00 0.00 38 1004.1
20260507195203 68 2 2.0 2.0 0.00 0.00 0.00 39 1004.1
20260507194700 67 22 4.0 7.0 0.00 0.00 0.00 37 1004.2
20260507194156 67 339 2.0 3.0 0.00 0.00 0.00 39 1004.2
20260507193653 68 277 2.0 3.0 0.00 0.00 0.00 35 1004.3
20260507193150 68 311 3.0 3.0 0.00 0.00 0.00 36 1004.4
20260507192646 67 333 3.0 3.0 0.00 0.00 0.00 38 1004.2
20260507192143 67 229 4.0 6.0 0.00 0.00 0.00 35 1004.2
20260507191639 67 259 3.0 4.0 0.00 0.00 0.00 34 1004.4
20260507191136 66 305 5.0 6.0 0.00 0.00 0.00 41 1004.4
20260507190633 66 326 1.0 2.0 0.00 0.00 0.00 36 1004.3
20260507190132 67 293 2.0 3.0 0.00 0.00 0.00 36 1004.3
20260507185630 66 1 5.0 6.0 0.00 0.00 0.00 38 1004.3
20260507185126 67 318 2.0 2.0 0.00 0.00 0.00 37 1004.2
20260507184624 67 8 1.0 1.0 0.00 0.00 0.00 45 1004.4
20260507184122 67 338 3.0 3.0 0.00 0.00 0.00 39 1004.5
20260507183618 67 353 1.0 1.0 0.00 0.00 0.00 41 1004.7
20260507183115 65 310 2.0 3.0 0.00 0.00 0.00 44 1004.3
20260507182611 67 334 2.0 3.0 0.00 0.00 0.00 42 1004.5
20260507182107 66 328 1.0 1.0 0.00 0.00 0.00 38 1004.7
20260507181604 66 354 1.0 1.0 0.00 0.00 0.00 45 1004.9
20260507181100 66 15 3.0 3.0 0.00 0.00 0.00 40 1004.7
20260507180558 66 343 1.0 1.0 0.00 0.00 0.00 40 1004.5
20260507180054 65 341 2.0 2.0 0.00 0.00 0.00 44 1004.9
20260507175550 65 350 1.0 1.0 0.00 0.00 0.00 52 1005.0
20260507175048 64 317 0.0 1.0 0.00 0.00 0.00 44 1005.1
20260507174544 63 320 1.0 1.0 0.00 0.00 0.00 42 1005.2
20260507174042 64 48 2.0 2.0 0.00 0.00 0.00 42 1005.7
20260507173539 64 315 3.0 3.0 0.00 0.00 0.00 48 1005.4
20260507173036 63 32 4.0 4.0 0.00 0.00 0.00 43 1005.7
20260507172532 63 332 1.0 2.0 0.00 0.00 0.00 46 1005.6
20260507172029 62 89 3.0 3.0 0.00 0.00 0.00 46 1005.8
20260507171524 63 333 1.0 1.0 0.00 0.00 0.00 43 1005.8
20260507171022 63 308 2.0 3.0 0.00 0.00 0.00 49 1006.0
20260507170519 62 337 2.0 4.0 0.00 0.00 0.00 44 1006.2
20260507170016 62 3 4.0 6.0 0.00 0.00 0.00 45 1006.1
20260507165511 62 331 2.0 3.0 0.00 0.00 0.00 47 1006.4
20260507165008 61 6 2.0 3.0 0.00 0.00 0.00 46 1006.4
20260507164504 61 1 2.0 2.0 0.00 0.00 0.00 46 1006.5
20260507164001 62 236 3.0 3.0 0.00 0.00 0.00 48 1006.5
20260507163458 61 331 1.0 1.0 0.00 0.00 0.00 50 1006.5
20260507162955 61 346 2.0 3.0 0.00 0.00 0.00 49 1006.5
20260507162451 61 322 0.0 1.0 0.00 0.00 0.00 51 1006.7
20260507161948 61 243 1.0 2.0 0.00 0.00 0.00 47 1006.8
20260507161444 61 28 2.0 3.0 0.00 0.00 0.00 47 1006.9
20260507160941 61 282 2.0 2.0 0.00 0.00 0.00 54 1007.0
20260507160437 60 326 1.0 3.0 0.00 0.00 0.00 47 1006.9
20260507155933 60 162 2.0 3.0 0.00 0.00 0.00 47 1007.1
20260507155429 61 6 3.0 6.0 0.00 0.00 0.00 50 1007.2
20260507154926 60 251 2.0 2.0 0.00 0.00 0.00 51 1007.2
20260507154423 59 96 2.0 3.0 0.00 0.00 0.00 47 1007.2
20260507153920 59 313 3.0 4.0 0.00 0.00 0.00 49 1007.4
20260507153417 59 264 2.0 2.0 0.00 0.00 0.00 52 1007.5
20260507152913 58 244 2.0 2.0 0.00 0.00 0.00 50 1007.4
20260507152409 58 353 1.0 1.0 0.00 0.00 0.00 54 1007.2
20260507151905 58 32 4.0 7.0 0.00 0.00 0.00 52 1007.4
20260507151402 58 12 2.0 3.0 0.00 0.00 0.00 50 1007.4
20260507150859 58 358 0.0 0.0 0.00 0.00 0.00 54 1007.5
20260507150356 57 5 1.0 2.0 0.00 0.00 0.00 52 1007.8
20260507145852 58 286 4.0 4.0 0.00 0.00 0.00 55 1007.9
20260507145348 59 333 1.0 1.0 0.00 0.00 0.00 51 1008.2
20260507144845 57 13 1.0 1.0 0.00 0.00 0.00 49 1008.3
20260507144343 57 349 2.0 2.0 0.00 0.00 0.00 55 1008.6
20260507143839 57 321 4.0 4.0 0.00 0.00 0.00 52 1008.5
20260507143336 55 347 1.0 1.0 0.00 0.00 0.00 54 1008.7
20260507142832 56 20 2.0 3.0 0.00 0.00 0.00 54 1008.4
20260507142324 56 11 1.0 1.0 0.00 0.00 0.00 53 1008.4
20260507141821 56 16 0.0 0.0 0.00 0.00 0.00 58 1008.4
20260507141317 54 18 2.0 2.0 0.00 0.00 0.00 59 1008.6
20260507140813 53 358 0.0 0.0 0.00 0.00 0.00 57 1008.6
20260507140310 53 328 2.0 2.0 0.00 0.00 0.00 59 1008.8
20260507135808 53 1 1.0 1.0 0.00 0.00 0.00 60 1008.9
20260507135306 54 343 1.0 1.0 0.00 0.00 0.00 59 1008.9
20260507134802 53 2 0.0 1.0 0.00 0.00 0.00 60 1008.9
20260507134258 53 4 1.0 1.0 0.00 0.00 0.00 59 1009.2
20260507133753 53 352 1.0 2.0 0.00 0.00 0.00 58 1009.0
20260507133250 52 352 0.0 1.0 0.00 0.00 0.00 59 1008.9
20260507132748 52 38 2.0 3.0 0.00 0.00 0.00 59 1009.2
20260507132244 52 357 0.0 0.0 0.00 0.00 0.00 62 1009.2
20260507131741 51 3 1.0 1.0 0.00 0.00 0.00 58 1009.2
20260507131238 51 348 1.0 1.0 0.00 0.00 0.00 57 1009.1
20260507130735 51 344 0.0 2.0 0.00 0.00 0.00 60 1009.2
20260507130233 51 356 2.0 2.0 0.00 0.00 0.00 57 1009.1
20260507125732 51 28 1.0 1.0 0.00 0.00 0.00 62 1009.0
20260507125229 51 350 0.0 0.0 0.00 0.00 0.00 62 1009.2
20260507124726 51 4 1.0 1.0 0.00 0.00 0.00 61 1009.5
20260507124222 51 354 0.0 0.0 0.00 0.00 0.00 59 1009.5
20260507123721 51 329 1.0 1.0 0.00 0.00 0.00 58 1009.3
20260507123218 51 352 1.0 2.0 0.00 0.00 0.00 59 1009.3
20260507122713 51 311 3.0 4.0 0.00 0.00 0.00 60 1009.2
20260507122209 51 6 0.0 0.0 0.00 0.00 0.00 61 1009.2
20260507121705 51 5 0.0 0.0 0.00 0.00 0.00 60 1009.1
20260507121201 51 338 0.0 0.0 0.00 0.00 0.00 63 1009.0
20260507120657 51 355 0.0 0.0 0.00 0.00 0.00 62 1009.0
20260507120155 51 341 0.0 0.0 0.00 0.00 0.00 65 1009.1
20260507115651 50 2 0.0 0.0 0.00 0.00 0.00 66 1009.0
20260507115146 50 3 0.0 1.0 0.00 0.00 0.00 64 1009.0
20260507114643 50 356 0.0 0.0 0.00 0.00 0.00 70 1009.0
20260507114140 50 351 0.0 0.0 0.00 0.00 0.00 70 1009.0
20260507113637 50 5 0.0 0.0 0.00 0.00 0.00 71 1009.0
20260507113134 50 355 0.0 0.0 0.00 0.00 0.00 68 1008.9
20260507112632 50 7 1.0 1.0 0.00 0.00 0.00 70 1009.0
20260507112128 50 344 0.0 0.0 0.00 0.00 0.00 70 1008.8
20260507111626 50 10 0.0 0.0 0.00 0.00 0.00 72 1008.8
20260507111122 49 352 0.0 0.0 0.00 0.00 0.00 74 1008.5
20260507110618 49 0 0.0 0.0 0.00 0.00 0.00 78 1008.8
20260507110115 49 3 0.0 0.0 0.00 0.00 0.00 80 1008.6
20260507105612 49 8 0.0 0.0 0.00 0.00 0.00 78 1008.7
20260507105108 49 359 0.0 0.0 0.00 0.00 0.00 78 1008.5
20260507104606 49 356 0.0 0.0 0.00 0.00 0.00 80 1008.6
20260507104101 49 351 0.0 0.0 0.00 0.00 0.00 81 1008.6
20260507103558 49 1 0.0 0.0 0.00 0.00 0.00 82 1008.3
20260507103054 49 2 0.0 0.0 0.00 0.00 0.00 81 1008.4
20260507102551 49 4 0.0 0.0 0.00 0.00 0.00 76 1008.4
20260507102047 49 2 0.0 0.0 0.00 0.00 0.00 77 1008.1
20260507101542 50 354 0.0 0.0 0.00 0.00 0.00 77 1008.0
20260507101039 50 358 0.0 0.0 0.00 0.00 0.00 77 1007.9
20260507100536 50 357 0.0 0.0 0.00 0.00 0.00 77 1007.8
20260507100035 50 355 0.0 0.0 0.00 0.00 0.00 74 1008.0
20260507095532 50 338 2.0 2.0 0.00 0.00 0.00 73 1007.9
20260507095029 50 341 0.0 1.0 0.00 0.00 0.00 76 1008.0
20260507094525 50 352 0.0 0.0 0.00 0.00 0.00 77 1007.9
20260507094022 50 341 1.0 1.0 0.00 0.00 0.00 76 1007.9
20260507093519 50 0 0.0 0.0 0.00 0.00 0.00 77 1007.8
20260507093018 50 356 0.0 0.0 0.00 0.00 0.00 78 1007.6
20260507092514 50 354 0.0 0.0 0.00 0.00 0.00 77 1007.5
20260507092011 50 352 0.0 1.0 0.00 0.00 0.00 78 1007.6
20260507091508 51 357 0.0 0.0 0.00 0.00 0.00 77 1007.5
20260507091004 51 359 1.0 1.0 0.00 0.00 0.00 79 1007.6
20260507090459 51 347 2.0 2.0 0.00 0.00 0.00 78 1007.8
20260507085956 51 339 2.0 2.0 0.00 0.00 0.00 80 1007.9
20260507085453 51 339 2.0 2.0 0.00 0.00 0.00 80 1007.8
20260507084950 51 3 0.0 1.0 0.00 0.00 0.00 82 1008.0
20260507084447 51 315 1.0 2.0 0.00 0.00 0.00 81 1007.6
20260507083944 51 343 1.0 1.0 0.00 0.00 0.00 84 1008.0
20260507083440 51 358 0.0 0.0 0.00 0.00 0.00 84 1008.2
20260507082936 51 5 0.0 0.0 0.00 0.00 0.00 87 1007.8
20260507082432 51 1 0.0 0.0 0.00 0.00 0.00 86 1007.5
20260507081930 51 4 0.0 0.0 0.00 0.00 0.00 86 1007.6
20260507081426 51 6 0.0 0.0 0.00 0.00 0.00 86 1007.9
20260507080923 51 11 0.0 1.0 0.00 0.00 0.00 85 1007.5
20260507080419 51 359 0.0 1.0 0.00 0.00 0.00 86 1007.8
20260507075914 51 324 2.0 3.0 0.00 0.00 0.00 86 1007.6
20260507075410 51 346 0.0 0.0 0.00 0.00 0.00 85 1007.6
20260507074907 51 346 1.0 1.0 0.00 0.00 0.00 86 1007.4
20260507074404 51 351 0.0 0.0 0.00 0.00 0.00 85 1007.5
20260507073902 51 357 0.0 0.0 0.00 0.00 0.00 89 1007.4
20260507073358 51 356 0.0 0.0 0.00 0.00 0.00 88 1007.2
20260507072855 51 356 0.0 0.0 0.00 0.00 0.00 87 1007.3
20260507072352 51 348 0.0 0.0 0.00 0.00 0.00 87 1007.3
20260507071850 51 210 1.0 2.0 0.00 0.00 0.00 89 1007.3
20260507071347 51 327 1.0 1.0 0.00 0.00 0.00 88 1007.5
20260507070843 51 3 0.0 0.0 0.00 0.00 0.00 88 1007.0
20260507070340 51 1 0.0 0.0 0.00 0.00 0.00 87 1007.4
20260507065837 51 357 0.0 0.0 0.00 0.00 0.00 86 1007.3